Participated 1 time
in 1938
Enrico Mollo, Italy
Tour de France 2026 starts from Barcelona, Spain in

Stats and Facts from
Tour de France.

2026   2025   2024   2023  2022  2021  2020  2019   2018  2017   2016   2015  2014  2013   2012   2011  2010   2009   2008   2007   2006   2005   2004   2003   2002   2001   2000   1999   1998   1997  1996   1995   1994   1993   1992  1991   1990   1989   1988   1987   1986   1985   1984   1983  1982  1981   1980   1979  1978  1977   1976  1975  1974  1973   1972   1971   1970  1969   1968   1967   1966   1965  1964  1963   1962   1961   1960   1959   1958   1957  1956   1955   1954   1953   1952  1951  1950  1949   1948  1947  1939   1938   1937   1936   1935   1934   1933  1932   1931   1930  1929   1928   1927   1926  1925  1924  1923   1922   1921   1920   1919  1914   1913   1912   1911   1910  1909   1908   1907   1906  1905  1904   1903 

Tourstats
Sitemap

After stage 21 - 2025:
 16451 starters.
  5463 different riders.
  689 teams.
  2398 stages.
  470 restdays.
  466506.50 km.
  5925 abandoned riders.

Click map for 1991 route.
Facts from Tour de France 1991
  |   Stages.  |   Stage winners.  |   Days in jerseys.  |   Teams.  |   All riders.  |   All riders by age.  |   All riders from.  |  

  |   Rookies.  |   Withdrawls.  |   Average speed.  |   GC.  |   Polka  |   Green  |   White  |   Summits. (In tour)  |   Miscellaneous.  |  

Stage 8 on July 13th. 1991
Pick a stage:  Pro  1  2  3  4  5  6  7  8  9  10  11  12  13  14  15  16  17  18  19  20  21  22  

After stage 8:    Greg LeMond  
  ArgentanAlençon | Dist: 73.00km. | Winner: Miguel Indurain

Podium

Average speed for all riders in stage:  41,942 km./hr.

1
 Miguel Indurain  Banesto01h 35' 44"=45,752  km/h

2
 Greg LeMond  Z01h 35' 52"+  00:00:08 =45,688  km/h

3
 Jean-François Bernard  Banesto01h 36' 37"+  00:00:53 =45,334  km/h

8  Pedro Delgado  Banesto01h 37' 49"+  00:02:05 =44,778  km/h

4  Erik Breukink  PDM-Concorde01h 37' 51"+  00:02:07 =44,762  km/h

9  Pascal Lance  Toshiba01h 38' 00"+  00:02:16 =44,694  km/h

10  Philippe Louviot  Toshiba01h 38' 02"+  00:02:18 =44,679  km/h

5  Gianni Bugno  Gatorade-Chateau d'Ax01h 38' 08"+  00:02:24 =44,633  km/h

6  Melchor Mauri  O.N.C.E.01h 38' 10"+  00:02:26 =44,618  km/h

7  Djamolidine Abduzhaparov  Carrera Jeans01h 38' 14"+  00:02:30 =44,588  km/h

11  Luc Leblanc  Castorama01h 38' 39"+  00:02:55 =44,399  km/h

12  Marco Giovannetti  Gatorade-Chateau d'Ax01h 38' 56"+  00:03:12 =44,272  km/h

13  Rolf Gölz  Ariostea01h 39' 00"+  00:03:16 =44,242  km/h

14  Raúl Alcalá  PDM-Concorde01h 39' 09"+  00:03:25 =44,175  km/h

15  Vladimir Pulnikov  Carrera Jeans01h 39' 14"+  00:03:30 =44,138  km/h

16  Laurent Fignon  Castorama01h 39' 23"+  00:03:39 =44,072  km/h

17  Álvaro Mejía  Ryalcao-Postobon01h 39' 28"+  00:03:44 =44,035  km/h

18  Sean Kelly  PDM-Concorde01h 39' 46"+  00:04:02 =43,902  km/h

19  Claudio Chiappucci  Carrera Jeans01h 39' 48"+  00:04:04 =43,888  km/h

20  Eric Vanderaerden  Buckler01h 39' 51"+  00:04:07 =43,866  km/h

21  Jesper Skibby  TVM-Sanyo01h 40' 01"+  00:04:17 =43,793  km/h

22  Werner Stutz  Weinmann-Eddy Merckx01h 40' 03"+  00:04:19 =43,778  km/h

23  Reynel Montoya  Ryalcao-Postobon01h 40' 03"+  00:04:19 =43,778  km/h

24  Óscar Vargas  Ryalcao-Postobon01h 40' 30"+  00:04:46 =43,582  km/h

25  Gilbert Duclos-Lassalle  Z01h 40' 33"+  00:04:49 =43,560  km/h

26  Maurizio Fondriest  Panasonic-Sportlife01h 40' 33"+  00:04:49 =43,560  km/h

27  Gert-Jan Theunisse  TVM-Sanyo01h 40' 51"+  00:05:07 =43,431  km/h

28  Steven Rooks  Buckler01h 41' 00"+  00:05:16 =43,366  km/h

29  Uwe Ampler  Histor-Sigma01h 41' 03"+  00:05:19 =43,345  km/h

30  Jean-Claude Colotti  Tonton Tapis-Corona01h 41' 06"+  00:05:22 =43,323  km/h

31  Nico  Emonds  Clas-Cajastur01h 41' 07"+  00:05:23 =43,316  km/h

32  Christian Chaubet  Toshiba01h 41' 07"+  00:05:23 =43,316  km/h

33  Fabrice Philipot  Banesto01h 41' 08"+  00:05:24 =43,309  km/h

34  Massimiliano Lelli  Ariostea01h 41' 08"+  00:05:24 =43,309  km/h

35  Olaf Ludwig  Panasonic-Sportlife01h 41' 09"+  00:05:25 =43,302  km/h

36  Thierry Marie  Castorama01h 41' 09"+  00:05:25 =43,302  km/h

37  Luis Herrera  Ryalcao-Postobon01h 41' 21"+  00:05:37 =43,217  km/h

38  Jelle Nijdam  Buckler01h 41' 21"+  00:05:37 =43,217  km/h

39  Gérard Rué  Helvetia01h 41' 22"+  00:05:38 =43,209  km/h

40  Gilles Delion  Helvetia01h 41' 28"+  00:05:44 =43,167  km/h

41  Éric Boyer  Z01h 41' 28"+  00:05:44 =43,167  km/h

42  Gerrit Solleveld  Buckler01h 41' 31"+  00:05:47 =43,146  km/h

43  Philippe Casado  Z01h 41' 31"+  00:05:47 =43,146  km/h

44  Bruno Cornillet  Z01h 41' 32"+  00:05:48 =43,139  km/h

45  Henry Cárdenas  Ryalcao-Postobon01h 41' 33"+  00:05:49 =43,131  km/h

46  Iñaki Gastón  Clas-Cajastur01h 41' 36"+  00:05:52 =43,110  km/h

47  Rolf Järmann  Weinmann-Eddy Merckx01h 41' 36"+  00:05:52 =43,110  km/h

48  Andy Hampsten  Motorola01h 41' 43"+  00:05:59 =43,061  km/h

49  Charly Mottet  R.M.O.-Mavic-Liberia01h 41' 45"+  00:06:01 =43,047  km/h

50  Eduardo Chozas  O.N.C.E.01h 41' 47"+  00:06:03 =43,033  km/h

51  Alberto Camargo  Ryalcao-Postobon01h 41' 50"+  00:06:06 =43,011  km/h

52  Gerardo Moncada  Ryalcao-Postobon01h 41' 50"+  00:06:06 =43,011  km/h

53  Marino Lejarreta  O.N.C.E.01h 41' 56"+  00:06:12 =42,969  km/h

54  Roberto Conti  Ariostea01h 42' 01"+  00:06:17 =42,934  km/h

55  Denis Roux  Toshiba01h 42' 02"+  00:06:18 =42,927  km/h

56  Patrick Verschueren  Lotto-Superclub-MBK01h 42' 02"+  00:06:18 =42,927  km/h

57  Thierry Bourguignon  Toshiba01h 42' 04"+  00:06:20 =42,913  km/h

58  Giancarlo Perini  Carrera Jeans01h 42' 08"+  00:06:24 =42,885  km/h

59  Brian Holm  Histor-Sigma01h 42' 09"+  00:06:25 =42,878  km/h

60  Pascal Richard  Helvetia01h 42' 10"+  00:06:26 =42,871  km/h

61  Anselmo Fuerte  O.N.C.E.01h 42' 10"+  00:06:26 =42,871  km/h

62  Laurent Jalabert  Toshiba01h 42' 16"+  00:06:32 =42,829  km/h

63  Gerrit De Vries  Buckler01h 42' 26"+  00:06:42 =42,760  km/h

64  Dag Otto Lauritzen  Motorola01h 42' 38"+  00:06:54 =42,676  km/h

65  Jerôme Simon  Z01h 42' 39"+  00:06:55 =42,669  km/h

66  Johan Bruyneel  Lotto-Superclub-MBK01h 42' 39"+  00:06:55 =42,669  km/h

67  Guy Nulens  Panasonic-Sportlife01h 42' 39"+  00:06:55 =42,669  km/h

68  Pascal Simon  Castorama01h 42' 42"+  00:06:58 =42,648  km/h

69  Olaf Lurvik  Toshiba01h 42' 43"+  00:06:59 =42,642  km/h

70  Fernando Quevedo  Amaya Seguros01h 42' 47"+  00:07:03 =42,614  km/h

71  Francisco Mauleón  Clas-Cajastur01h 42' 50"+  00:07:06 =42,593  km/h

72  Phil Anderson  Motorola01h 42' 53"+  00:07:09 =42,572  km/h

73  Stephen Hodge  O.N.C.E.01h 43' 02"+  00:07:18 =42,511  km/h

74  Viatcheslav Ekimov  Panasonic-Sportlife01h 43' 06"+  00:07:22 =42,483  km/h

75  Alberto Leanizbarrutia  Clas-Cajastur01h 43' 08"+  00:07:24 =42,469  km/h

76  Guido Bontempi  Carrera Jeans01h 43' 08"+  00:07:24 =42,469  km/h

77  Moreno Argentin  Ariostea01h 43' 11"+  00:07:27 =42,449  km/h

78  Patrice Esnault  Amaya Seguros01h 43' 12"+  00:07:28 =42,442  km/h

79  Herminio Diaz Zabala  O.N.C.E.01h 43' 13"+  00:07:29 =42,435  km/h

80  Éric Caritoux  R.M.O.-Mavic-Liberia01h 43' 15"+  00:07:31 =42,421  km/h

81  Michel Dernies  Weinmann-Eddy Merckx01h 43' 17"+  00:07:33 =42,408  km/h

82  Marc Madiot  R.M.O.-Mavic-Liberia01h 43' 18"+  00:07:34 =42,401  km/h

83  Pello Ruiz Cabestany  Clas-Cajastur01h 43' 21"+  00:07:37 =42,380  km/h

84  Peter Stevenhaagen  Helvetia01h 43' 25"+  00:07:41 =42,353  km/h

85  Andrew Bishop  Motorola01h 43' 30"+  00:07:46 =42,319  km/h

86  Dominique Arnould  Castorama01h 43' 32"+  00:07:48 =42,305  km/h

87  Pascal Lino  R.M.O.-Mavic-Liberia01h 43' 34"+  00:07:50 =42,292  km/h

88  Johan Museeuw  Lotto-Superclub-MBK01h 43' 34"+  00:07:50 =42,292  km/h

89  Michel Vermote  R.M.O.-Mavic-Liberia01h 43' 37"+  00:07:53 =42,271  km/h

90  Ronan Pensec  Amaya Seguros01h 43' 43"+  00:07:59 =42,230  km/h

91  Sean Yates  Motorola01h 43' 45"+  00:08:01 =42,217  km/h

92  Mauro Gianetti  Helvetia01h 43' 46"+  00:08:02 =42,210  km/h

93  Marco Lietti  Ariostea01h 43' 54"+  00:08:10 =42,156  km/h

94  Johnny Weltz  O.N.C.E.01h 43' 55"+  00:08:11 =42,149  km/h

95  Frans Maassen  Buckler01h 43' 58"+  00:08:14 =42,129  km/h

96  Rudy Dhaenens  Panasonic-Sportlife01h 44' 00"+  00:08:16 =42,115  km/h

97  Søren Lilholt  Histor-Sigma01h 44' 08"+  00:08:24 =42,061  km/h

98  Sammie Moreels  Lotto-Superclub-MBK01h 44' 09"+  00:08:25 =42,055  km/h

99  Christophe Lavainne  Castorama01h 44' 13"+  00:08:29 =42,028  km/h

100  Frank Van Den Abeele  Lotto-Superclub-MBK01h 44' 13"+  00:08:29 =42,028  km/h

101  Jos Van Aert  PDM-Concorde01h 44' 21"+  00:08:37 =41,974  km/h

102  Martin Earley  PDM-Concorde01h 44' 22"+  00:08:38 =41,967  km/h

103  Dimitri Konychev  TVM-Sanyo01h 44' 23"+  00:08:39 =41,961  km/h

104  Dominik Krieger  Helvetia01h 44' 27"+  00:08:43 =41,934  km/h

105  Robert Millar  Z01h 44' 33"+  00:08:49 =41,894  km/h

106  Jesús Montoya  Amaya Seguros01h 44' 38"+  00:08:54 =41,860  km/h

107  Carlos Jaramillo  Ryalcao-Postobon01h 44' 45"+  00:09:01 =41,814  km/h

108  Francis Moreau  Tonton Tapis-Corona01h 44' 46"+  00:09:02 =41,807  km/h

109  Dimitri Zhdanov  Panasonic-Sportlife01h 44' 47"+  00:09:03 =41,801  km/h

110  Javier Murguialday  Amaya Seguros01h 44' 48"+  00:09:04 =41,794  km/h

111  Frédéric Vichot  Castorama01h 44' 49"+  00:09:05 =41,787  km/h

112  Hendrik Redant  Lotto-Superclub-MBK01h 44' 54"+  00:09:10 =41,754  km/h

113  Alessandro Giannelli  Carrera Jeans01h 44' 54"+  00:09:10 =41,754  km/h

114  Vasily Zhdanov  TVM-Sanyo01h 44' 57"+  00:09:13 =41,734  km/h

115  Dirk De Wolf  Tonton Tapis-Corona01h 45' 00"+  00:09:16 =41,714  km/h

116  Uwe Raab  PDM-Concorde01h 45' 03"+  00:09:19 =41,694  km/h

117  Manuel Dominguez  Clas-Cajastur01h 45' 04"+  00:09:20 =41,688  km/h

118  Andreas Kappes  Histor-Sigma01h 45' 05"+  00:09:21 =41,681  km/h

119  Thomas Wegmüller  Weinmann-Eddy Merckx01h 45' 05"+  00:09:21 =41,681  km/h

120  Abelardo Rondón  Banesto01h 45' 08"+  00:09:24 =41,661  km/h

121  Erich Mächler  Carrera Jeans01h 45' 13"+  00:09:29 =41,628  km/h

122  Yvon Madiot  R.M.O.-Mavic-Liberia01h 45' 15"+  00:09:31 =41,615  km/h

123  John Carlsen  Tonton Tapis-Corona01h 45' 16"+  00:09:32 =41,609  km/h

124  Wilfried Peeters  Histor-Sigma01h 45' 22"+  00:09:38 =41,569  km/h

125  Jan Nevens  Lotto-Superclub-MBK01h 45' 23"+  00:09:39 =41,563  km/h

126  Jean-Claude Bagot  Castorama01h 45' 23"+  00:09:39 =41,563  km/h

127  Alberto Elli  Ariostea01h 45' 28"+  00:09:44 =41,530  km/h

128  Marc Sergeant  Panasonic-Sportlife01h 45' 30"+  00:09:46 =41,517  km/h

129  Atle Pedersen  Tonton Tapis-Corona01h 45' 38"+  00:09:54 =41,464  km/h

130  Marino Alonso  Banesto01h 45' 43"+  00:09:59 =41,431  km/h

131  Edwig Van Hooydonck  Buckler01h 45' 48"+  00:10:04 =41,399  km/h

132  Falk Boden  PDM-Concorde01h 45' 49"+  00:10:05 =41,392  km/h

133  Thierry Laurent  R.M.O.-Mavic-Liberia01h 45' 53"+  00:10:09 =41,366  km/h

134  Mauro Ribeiro  R.M.O.-Mavic-Liberia01h 46' 04"+  00:10:20 =41,295  km/h

135  Laurent Pillon  Tonton Tapis-Corona01h 46' 10"+  00:10:26 =41,256  km/h

136  Rob Harmeling  TVM-Sanyo01h 46' 14"+  00:10:30 =41,230  km/h

137  Dominique Arnaud  Banesto01h 46' 15"+  00:10:31 =41,224  km/h

138  Bjarne Riis  Castorama01h 46' 21"+  00:10:37 =41,185  km/h

139  Steve Bauer  Motorola01h 46' 28"+  00:10:44 =41,140  km/h

140  Miguel Angel Martinez  O.N.C.E.01h 46' 36"+  00:10:52 =41,088  km/h

141  Thierry Claveyrolat  R.M.O.-Mavic-Liberia01h 46' 37"+  00:10:53 =41,082  km/h

142  Patrick Jacobs  Tonton Tapis-Corona01h 46' 59"+  00:11:15 =40,941  km/h

143  Bruno Cenghialta  Ariostea01h 47' 05"+  00:11:21 =40,903  km/h

144  Etienne De Wilde  Histor-Sigma01h 47' 07"+  00:11:23 =40,890  km/h

145  Eric Van Lancker  Panasonic-Sportlife01h 47' 10"+  00:11:26 =40,871  km/h

146  Rik  Van Slycke  Lotto-Superclub-MBK01h 47' 10"+  00:11:26 =40,871  km/h

147  Enrico Zaina  Carrera Jeans01h 47' 11"+  00:11:27 =40,865  km/h

148  Marc van Orsouw  Panasonic-Sportlife01h 47' 12"+  00:11:28 =40,858  km/h

149  Ron Kiefel  Motorola01h 47' 12"+  00:11:28 =40,858  km/h

150  Javier Lukin  Banesto01h 47' 17"+  00:11:33 =40,826  km/h

151  Benjamin Van Itterbeeck  Histor-Sigma01h 47' 24"+  00:11:40 =40,782  km/h

152  Urs Zimmermann  Motorola01h 47' 32"+  00:11:48 =40,732  km/h

153  Jean-Paul van Poppel  PDM-Concorde01h 47' 36"+  00:11:52 =40,706  km/h

154  Arsenio Chaparro  Ryalcao-Postobon01h 47' 38"+  00:11:54 =40,694  km/h

155  Carlo Bomans  Weinmann-Eddy Merckx01h 47' 46"+  00:12:02 =40,643  km/h

156  Remig Stumpf  Histor-Sigma01h 47' 51"+  00:12:07 =40,612  km/h

157  Valerio Tebaldi  Gatorade-Chateau d'Ax01h 47' 53"+  00:12:09 =40,599  km/h

158  Jesus Rodriguez Magro  Banesto01h 47' 57"+  00:12:13 =40,574  km/h

159  Thomas Barth  TVM-Sanyo01h 48' 00"+  00:12:16 =40,556  km/h

160  Wiebren Veenstra  Buckler01h 48' 03"+  00:12:19 =40,537  km/h

161  Francisco Espinosa  Clas-Cajastur01h 48' 06"+  00:12:22 =40,518  km/h

162  Ludwig Willems  Weinmann-Eddy Merckx01h 48' 09"+  00:12:25 =40,499  km/h

163  Guido Winterberg  Helvetia01h 48' 15"+  00:12:31 =40,462  km/h

164  Henri Manders  Helvetia01h 48' 18"+  00:12:34 =40,443  km/h

165  Toine  Poels  Buckler01h 48' 18"+  00:12:34 =40,443  km/h

166  Guiseppe Calcaterra  Gatorade-Chateau d'Ax01h 48' 38"+  00:12:54 =40,319  km/h

167  Rudy Verdonck  Weinmann-Eddy Merckx01h 48' 45"+  00:13:01 =40,276  km/h

168  Jan Siemons  TVM-Sanyo01h 48' 48"+  00:13:04 =40,257  km/h

169  François Lemarchand  Z01h 48' 59"+  00:13:15 =40,190  km/h

170  Javier Duch  Clas-Cajastur01h 49' 00"+  00:13:16 =40,183  km/h

171  Henri Abadie  Toshiba01h 49' 01"+  00:13:17 =40,177  km/h

172  Jure Pavlič  Carrera Jeans01h 49' 17"+  00:13:33 =40,079  km/h

173  José-Manuel Oliveira  Clas-Cajastur01h 49' 30"+  00:13:46 =40,000  km/h

174  Peter De Clercq  Lotto-Superclub-MBK01h 49' 32"+  00:13:48 =39,988  km/h

175  Enrique Guerrikagoitia  Amaya Seguros01h 49' 34"+  00:13:50 =39,976  km/h

176  Didier Virvaleix  Histor-Sigma01h 49' 47"+  00:14:03 =39,897  km/h

177  Per Pedersen  Amaya Seguros01h 49' 52"+  00:14:08 =39,867  km/h

178  Roberto Gusmeroli  Gatorade-Chateau d'Ax01h 49' 54"+  00:14:10 =39,854  km/h

179  Roland Le Clerc  Amaya Seguros01h 50' 09"+  00:14:25 =39,764  km/h

180  Sergei Uslamin  TVM-Sanyo01h 50' 23"+  00:14:39 =39,680  km/h

181  José Luis Villanueva  O.N.C.E.01h 50' 33"+  00:14:49 =39,620  km/h

182  Alfred Achermann  Weinmann-Eddy Merckx01h 50' 53"+  00:15:09 =39,501  km/h

183  Eddy Schurer  TVM-Sanyo01h 50' 53"+  00:15:09 =39,501  km/h

184  Nico Verhoeven  PDM-Concorde01h 51' 06"+  00:15:22 =39,424  km/h

185  Serge Demierre  Helvetia01h 51' 07"+  00:15:23 =39,418  km/h

186  Michael Carter  Motorola01h 51' 08"+  00:15:24 =39,412  km/h

187  Jan Schur  Gatorade-Chateau d'Ax01h 51' 18"+  00:15:34 =39,353  km/h

188  Mauro-Antonio Santaromita  Gatorade-Chateau d'Ax01h 51' 27"+  00:15:43 =39,300  km/h

189  Atle Kvå lsvoll  Z01h 51' 49"+  00:16:05 =39,171  km/h

190  Davide Cassani  Ariostea01h 52' 15"+  00:16:31 =39,020  km/h

191  Laurence Roche  Tonton Tapis-Corona01h 52' 27"+  00:16:43 =38,951  km/h

192  Stefano Zanatta  Gatorade-Chateau d'Ax01h 52' 30"+  00:16:46 =38,933  km/h

193  Jan Goessens  Weinmann-Eddy Merckx01h 52' 31"+  00:16:47 =38,928  km/h

194  Camillo Passera  Gatorade-Chateau d'Ax01h 53' 25"+  00:17:41 =38,619  km/h


Todays birthdays.

1888 • Giuseppe Contesini
1911 • Edmond Pages
1935 • Eddy Pauwels
1940 • Julien Haelterman
1958 • Luc Colijn
1962 • Jean-François Bernard
1984 • Yann Huguet
1993 • Owain Doull

 

Optimized for Chrome - Edge
and Opera browsers.